FALCON 9 R/B, 59599

Orbit data source: Space-Track

FALCON 9 R/B, 59599 is space debris originally from a launch on Sun, 28 Apr 2024 UTC launched from the Air Force Eastern Test Range (AFETR). Debris objects in space refer to the collection of defunct objects orbiting the Earth. Examples of debris include non-operational satellites, rocket bodies, and fragments generated from explosions, collisions, or faulty payload assembly.

Loading next visibility...
Identifier
59599, 2024-079B
Orbit
Active
Country
Flag of USUS
Related business
Manufacturer
SpaceX
Mission
Spacecraft
Bus & Motor
F9ST2, Unknown motor
Mass
~4,000 kg wet, ~4,000 kg dry
Launch date (UTC)
2024-04-28 (2 years ago)
Launch vehicle
Unknown
Launch site
Air Force Eastern Test Range (AFETR)
Object type
Payload
Rocket body
Debris
Shape & HBR
Cyl, 7.8 m
Radar Cross Section
39.980 m², Large (>1 m²)

Expand to show TLE details & history
Last TLE update: 2 days ago

TLE from 2 days ago
0 FALCON 9 R/B
1 59599U 24079B   26171.23593676 -.00000017  00000-0  00000+0 0  9995
2 59599  55.0955 100.2403 0001690 354.0272 189.8628  1.73013966 13582
Epoch: 2026-06-20T05:39Z
TLE epoch observation values (Epoch: 2026-06-20T05:39:44.936Z)
Latitude
-3.24587°
Longitude
-70.88819°
Altitude
22,937.41 km
Speed
3.687 km/s
True Right ascension
18h 50m 00s
True Declination
-3° 14' 28"
Sunlit
Object was in daylight at epoch
Visualization orbit readout
Latitude
Unknown
Longitude
Unknown
Altitude
Unknown
Speed
Unknown
Apparent Right ascension
Unknown
Apparent Declination
Unknown
Sunlit
N/A
Visualization observer readout
Local Sidereal Time
21:40:24
Azimuth
Unknown
Elevation
Unknown
Doppler factor
Unknown
Orbital elements
Apogee altitude
22,936.725 km
Perigee altitude
22,926.819 km
Semi-major axis
29,309.909 km
Eccentricity
0.00017
Inclination
55.0955°
RAAN
100.2403°
Arg. of periapsis
354.0272°
True anomaly
189.85948°
Mean anomaly
189.8628°
Eccentric anomaly
189.86114°
Mean motion
0.43254 °/min
Orbital period
832.3 mins
BSTAR
0
Loading maneuver chart data...
Computing Atmospheric mass density...
Loading historical data...
Loading historical data...
Loading historical data...
Loading historical data...
Loading historical data...
Loading historical data...
Loading historical data...
Other satellites on launch #79 in the year 2024 (2024-04-28 UTC)

Documentation

Showing up to 5 results
|